owner,sensor,date,latitude,longitude,vertical_datum,mass_concentration_of_oxygen_in_sea_water,qcFlag 
SCCF RECON,ioos:station:SCCF:56:1,2016-09-01T00:00:00Z,26.4645,-82.1044,1.42,3.8,1111122 
SCCF RECON,ioos:station:SCCF:56:1,2016-09-01T01:00:00Z,26.4645,-82.1044,1.48,3.79,1111122 
SCCF RECON,ioos:station:SCCF:56:1,2016-09-01T02:00:00Z,26.4645,-82.1044,1.67,5.5,1111122 
SCCF RECON,ioos:station:SCCF:56:1,2016-09-01T03:00:00Z,26.4645,-82.1044,1.81,5.35,1111122 
SCCF RECON,ioos:station:SCCF:56:1,2016-09-01T04:00:00Z,26.4645,-82.1044,1.87,5.3,1111122 
SCCF RECON,ioos:station:SCCF:56:1,2016-09-01T05:00:00Z,26.4645,-82.1044,1.902,5.11,1111122 
SCCF RECON,ioos:station:SCCF:56:1,2016-09-01T06:00:00Z,26.4645,-82.1044,1.95,5.02,1111122 
SCCF RECON,ioos:station:SCCF:56:1,2016-09-01T07:00:00Z,26.4645,-82.1044,1.922,4.66,1111122 
SCCF RECON,ioos:station:SCCF:56:1,2016-09-01T08:00:00Z,26.4645,-82.1044,1.89,4.75,1111122 
SCCF RECON,ioos:station:SCCF:56:1,2016-09-01T09:00:00Z,26.4645,-82.1044,1.801,4.28,1111122 
SCCF RECON,ioos:station:SCCF:56:1,2016-09-01T10:00:00Z,26.4645,-82.1044,1.7,3.66,1111122 
SCCF RECON,ioos:station:SCCF:56:1,2016-09-01T11:00:00Z,26.4645,-82.1044,1.64,3.51,1111122 
SCCF RECON,ioos:station:SCCF:56:1,2016-09-01T12:00:00Z,26.4645,-82.1044,1.61,2.86,1111122 
SCCF RECON,ioos:station:SCCF:56:1,2016-09-01T13:00:00Z,26.4645,-82.1044,1.68,3.5,1111122 
SCCF RECON,ioos:station:SCCF:56:1,2016-09-01T14:00:00Z,26.4645,-82.1044,1.82,5.19,1111122 
SCCF RECON,ioos:station:SCCF:56:1,2016-09-01T15:00:00Z,26.4645,-82.1044,1.95,5.84,1111122 
SCCF RECON,ioos:station:SCCF:56:1,2016-09-01T16:00:00Z,26.4645,-82.1044,2.076,5.95,1111122 
SCCF RECON,ioos:station:SCCF:56:1,2016-09-01T17:00:00Z,26.4645,-82.1044,2.143,6.14,1111122 
SCCF RECON,ioos:station:SCCF:56:1,2016-09-01T18:00:00Z,26.4645,-82.1044,2.19,6.23,1111122 
SCCF RECON,ioos:station:SCCF:56:1,2016-09-01T19:00:00Z,26.4645,-82.1044,2.2,6.15,1111122 
SCCF RECON,ioos:station:SCCF:56:1,2016-09-01T20:00:00Z,26.4645,-82.1044,2.13,6.08,1111122 
SCCF RECON,ioos:station:SCCF:56:1,2016-09-01T21:00:00Z,26.4645,-82.1044,2.02,5.58,1111122 
SCCF RECON,ioos:station:SCCF:56:1,2016-09-01T22:00:00Z,26.4645,-82.1044,1.91,5.0,1111122 
SCCF RECON,ioos:station:SCCF:56:1,2016-09-01T23:00:00Z,26.4645,-82.1044,1.8,4.96,1111122 
SCCF RECON,ioos:station:SCCF:56:1,2016-09-02T00:00:00Z,26.4645,-82.1044,1.647,4.34,1111122 
SCCF RECON,ioos:station:SCCF:56:1,2016-09-02T01:00:00Z,26.4645,-82.1044,1.62,4.23,1111122 
SCCF RECON,ioos:station:SCCF:56:1,2016-09-02T02:00:00Z,26.4645,-82.1044,1.712,4.22,1111122 
SCCF RECON,ioos:station:SCCF:56:1,2016-09-02T03:00:00Z,26.4645,-82.1044,1.864,5.05,1111122 
SCCF RECON,ioos:station:SCCF:56:1,2016-09-02T04:00:00Z,26.4645,-82.1044,1.97,5.06,1111122 
SCCF RECON,ioos:station:SCCF:56:1,2016-09-02T05:00:00Z,26.4645,-82.1044,2.058,5.01,1111122 
SCCF RECON,ioos:station:SCCF:56:1,2016-09-02T06:00:00Z,26.4645,-82.1044,2.077,4.82,1111122 
SCCF RECON,ioos:station:SCCF:56:1,2016-09-02T07:00:00Z,26.4645,-82.1044,2.08,5.15,1111122 
SCCF RECON,ioos:station:SCCF:56:1,2016-09-02T08:00:00Z,26.4645,-82.1044,2.052,4.9,1111122 
SCCF RECON,ioos:station:SCCF:56:1,2016-09-02T09:00:00Z,26.4645,-82.1044,1.943,4.26,1111122 
SCCF RECON,ioos:station:SCCF:56:1,2016-09-02T10:00:00Z,26.4645,-82.1044,1.838,3.86,1111122 
SCCF RECON,ioos:station:SCCF:56:1,2016-09-02T11:00:00Z,26.4645,-82.1044,1.757,3.6,1111122 
SCCF RECON,ioos:station:SCCF:56:1,2016-09-02T12:00:00Z,26.4645,-82.1044,1.71,3.19,1111122 
SCCF RECON,ioos:station:SCCF:56:1,2016-09-02T13:00:00Z,26.4645,-82.1044,1.7,2.88,1111122 
SCCF RECON,ioos:station:SCCF:56:1,2016-09-02T14:00:00Z,26.4645,-82.1044,1.79,3.36,1111122 
SCCF RECON,ioos:station:SCCF:56:1,2016-09-02T15:00:00Z,26.4645,-82.1044,1.9,5.17,1111122 
SCCF RECON,ioos:station:SCCF:56:1,2016-09-02T16:00:00Z,26.4645,-82.1044,2.085,5.37,1111122 
SCCF RECON,ioos:station:SCCF:56:1,2016-09-02T17:00:00Z,26.4645,-82.1044,2.117,5.25,1111122 
SCCF RECON,ioos:station:SCCF:56:1,2016-09-02T18:00:00Z,26.4645,-82.1044,2.05,5.0,1111122 
SCCF RECON,ioos:station:SCCF:56:1,2016-09-02T19:00:00Z,26.4645,-82.1044,1.992,5.06,1111122 
SCCF RECON,ioos:station:SCCF:56:1,2016-09-02T20:00:00Z,26.4645,-82.1044,1.91,4.96,1111122 
SCCF RECON,ioos:station:SCCF:56:1,2016-09-02T21:00:00Z,26.4645,-82.1044,1.795,4.4,1111122 
SCCF RECON,ioos:station:SCCF:56:1,2016-09-02T22:00:00Z,26.4645,-82.1044,1.655,3.69,1111122 
SCCF RECON,ioos:station:SCCF:56:1,2016-09-02T23:00:00Z,26.4645,-82.1044,1.536,3.39,1111122 
SCCF RECON,ioos:station:SCCF:56:1,2016-09-03T00:00:00Z,26.4645,-82.1044,1.461,3.25,1111122 
SCCF RECON,ioos:station:SCCF:56:1,2016-09-03T01:00:00Z,26.4645,-82.1044,1.4,3.25,1111122 
SCCF RECON,ioos:station:SCCF:56:1,2016-09-03T02:00:00Z,26.4645,-82.1044,1.41,2.97,1111122 
SCCF RECON,ioos:station:SCCF:56:1,2016-09-03T03:00:00Z,26.4645,-82.1044,1.53,2.88,1111122 
SCCF RECON,ioos:station:SCCF:56:1,2016-09-03T04:00:00Z,26.4645,-82.1044,1.7,4.63,1111122 
SCCF RECON,ioos:station:SCCF:56:1,2016-09-03T05:00:00Z,26.4645,-82.1044,1.819,4.69,1111122 
SCCF RECON,ioos:station:SCCF:56:1,2016-09-03T06:00:00Z,26.4645,-82.1044,1.92,4.53,1111122 
SCCF RECON,ioos:station:SCCF:56:1,2016-09-03T07:00:00Z,26.4645,-82.1044,1.95,4.62,1111122 
SCCF RECON,ioos:station:SCCF:56:1,2016-09-03T08:00:00Z,26.4645,-82.1044,1.84,4.03,1111122 
SCCF RECON,ioos:station:SCCF:56:1,2016-09-03T09:00:00Z,26.4645,-82.1044,1.7,3.58,1111122 
SCCF RECON,ioos:station:SCCF:56:1,2016-09-03T10:00:00Z,26.4645,-82.1044,1.61,2.98,1111122 
SCCF RECON,ioos:station:SCCF:56:1,2016-09-03T11:00:00Z,26.4645,-82.1044,1.51,2.56,1111122 
SCCF RECON,ioos:station:SCCF:56:1,2016-09-03T12:00:00Z,26.4645,-82.1044,1.41,2.06,1111122 
SCCF RECON,ioos:station:SCCF:56:1,2016-09-03T13:00:00Z,26.4645,-82.1044,1.35,1.82,1111122 
SCCF RECON,ioos:station:SCCF:56:1,2016-09-03T14:00:00Z,26.4645,-82.1044,1.384,1.73,1111122 
SCCF RECON,ioos:station:SCCF:56:1,2016-09-03T15:00:00Z,26.4645,-82.1044,1.54,4.55,1111122 
SCCF RECON,ioos:station:SCCF:56:1,2016-09-03T16:00:00Z,26.4645,-82.1044,1.72,5.72,1111122 
SCCF RECON,ioos:station:SCCF:56:1,2016-09-03T17:00:00Z,26.4645,-82.1044,1.839,6.42,1111122 
SCCF RECON,ioos:station:SCCF:56:1,2016-09-03T18:00:00Z,26.4645,-82.1044,1.916,6.8,1111122 
SCCF RECON,ioos:station:SCCF:56:1,2016-09-03T19:00:00Z,26.4645,-82.1044,1.96,7.0,1111122 
SCCF RECON,ioos:station:SCCF:56:1,2016-09-03T20:00:00Z,26.4645,-82.1044,1.92,7.09,1111122 
SCCF RECON,ioos:station:SCCF:56:1,2016-09-03T21:00:00Z,26.4645,-82.1044,1.82,7.5,1111122 
SCCF RECON,ioos:station:SCCF:56:1,2016-09-03T22:00:00Z,26.4645,-82.1044,1.71,6.65,1111122 
SCCF RECON,ioos:station:SCCF:56:1,2016-09-03T23:00:00Z,26.4645,-82.1044,1.612,6.69,1111122 
SCCF RECON,ioos:station:SCCF:56:1,2016-09-04T00:00:00Z,26.4645,-82.1044,1.51,6.0,1111122 
SCCF RECON,ioos:station:SCCF:56:1,2016-09-04T01:00:00Z,26.4645,-82.1044,1.45,5.55,1111122 
SCCF RECON,ioos:station:SCCF:56:1,2016-09-04T02:00:00Z,26.4645,-82.1044,1.44,5.37,1111122 
SCCF RECON,ioos:station:SCCF:56:1,2016-09-04T03:00:00Z,26.4645,-82.1044,1.53,5.2,1111122 
SCCF RECON,ioos:station:SCCF:56:1,2016-09-04T04:00:00Z,26.4645,-82.1044,1.66,6.57,1111122 
SCCF RECON,ioos:station:SCCF:56:1,2016-09-04T05:00:00Z,26.4645,-82.1044,1.8,5.99,1111122 
SCCF RECON,ioos:station:SCCF:56:1,2016-09-04T06:00:00Z,26.4645,-82.1044,1.88,6.04,1111122 
SCCF RECON,ioos:station:SCCF:56:1,2016-09-04T07:00:00Z,26.4645,-82.1044,1.91,6.08,1111122 
SCCF RECON,ioos:station:SCCF:56:1,2016-09-04T08:00:00Z,26.4645,-82.1044,1.883,6.14,1111122 
SCCF RECON,ioos:station:SCCF:56:1,2016-09-04T09:00:00Z,26.4645,-82.1044,1.818,6.06,1111122 
SCCF RECON,ioos:station:SCCF:56:1,2016-09-04T10:00:00Z,26.4645,-82.1044,1.7,4.98,1111122 
SCCF RECON,ioos:station:SCCF:56:1,2016-09-04T11:00:00Z,26.4645,-82.1044,1.588,4.26,1111122 
SCCF RECON,ioos:station:SCCF:56:1,2016-09-04T12:00:00Z,26.4645,-82.1044,1.49,3.37,1111122 
SCCF RECON,ioos:station:SCCF:56:1,2016-09-04T13:00:00Z,26.4645,-82.1044,1.401,2.9,1111122 
SCCF RECON,ioos:station:SCCF:56:1,2016-09-04T14:00:00Z,26.4645,-82.1044,1.35,2.73,1111122 
SCCF RECON,ioos:station:SCCF:56:1,2016-09-04T15:00:00Z,26.4645,-82.1044,1.39,3.54,1111122 
SCCF RECON,ioos:station:SCCF:56:1,2016-09-04T16:00:00Z,26.4645,-82.1044,1.56,7.39,1111122 
SCCF RECON,ioos:station:SCCF:56:1,2016-09-04T17:00:00Z,26.4645,-82.1044,1.728,9.2,1111122 
SCCF RECON,ioos:station:SCCF:56:1,2016-09-04T18:00:00Z,26.4645,-82.1044,1.83,9.33,1111122 
SCCF RECON,ioos:station:SCCF:56:1,2016-09-04T19:00:00Z,26.4645,-82.1044,1.89,8.85,1111122 
SCCF RECON,ioos:station:SCCF:56:1,2016-09-04T20:00:00Z,26.4645,-82.1044,1.883,8.55,1111122 
SCCF RECON,ioos:station:SCCF:56:1,2016-09-04T21:00:00Z,26.4645,-82.1044,1.8,8.71,1111122 
SCCF RECON,ioos:station:SCCF:56:1,2016-09-04T22:00:00Z,26.4645,-82.1044,1.723,7.91,1111122 
SCCF RECON,ioos:station:SCCF:56:1,2016-09-04T23:00:00Z,26.4645,-82.1044,1.64,8.03,1111122 
SCCF RECON,ioos:station:SCCF:56:1,2016-09-05T00:00:00Z,26.4645,-82.1044,1.57,7.55,1111122 
SCCF RECON,ioos:station:SCCF:56:1,2016-09-05T01:00:00Z,26.4645,-82.1044,1.52,6.67,1111122 
SCCF RECON,ioos:station:SCCF:56:1,2016-09-05T02:00:00Z,26.4645,-82.1044,1.48,6.25,1111122 
SCCF RECON,ioos:station:SCCF:56:1,2016-09-05T03:00:00Z,26.4645,-82.1044,1.49,5.8,1111122 
SCCF RECON,ioos:station:SCCF:56:1,2016-09-05T04:00:00Z,26.4645,-82.1044,1.58,5.28,1111122 
SCCF RECON,ioos:station:SCCF:56:1,2016-09-05T05:00:00Z,26.4645,-82.1044,1.69,5.53,1111122 
SCCF RECON,ioos:station:SCCF:56:1,2016-09-05T06:00:00Z,26.4645,-82.1044,1.79,5.67,1111122 
SCCF RECON,ioos:station:SCCF:56:1,2016-09-05T07:00:00Z,26.4645,-82.1044,1.87,5.41,1111122 
SCCF RECON,ioos:station:SCCF:56:1,2016-09-05T08:00:00Z,26.4645,-82.1044,1.88,5.79,1111122 
SCCF RECON,ioos:station:SCCF:56:1,2016-09-05T09:00:00Z,26.4645,-82.1044,1.84,5.52,1111122 
SCCF RECON,ioos:station:SCCF:56:1,2016-09-05T10:00:00Z,26.4645,-82.1044,1.77,4.93,1111122 
SCCF RECON,ioos:station:SCCF:56:1,2016-09-05T11:00:00Z,26.4645,-82.1044,1.68,4.58,1111122 
SCCF RECON,ioos:station:SCCF:56:1,2016-09-05T12:00:00Z,26.4645,-82.1044,1.6,4.0,1111122 
SCCF RECON,ioos:station:SCCF:56:1,2016-09-05T13:00:00Z,26.4645,-82.1044,1.494,3.4,1111122 
SCCF RECON,ioos:station:SCCF:56:1,2016-09-05T14:00:00Z,26.4645,-82.1044,1.429,3.16,1111122 
SCCF RECON,ioos:station:SCCF:56:1,2016-09-05T15:00:00Z,26.4645,-82.1044,1.41,3.18,1111122 
SCCF RECON,ioos:station:SCCF:56:1,2016-09-05T16:00:00Z,26.4645,-82.1044,1.461,3.99,1111122 
SCCF RECON,ioos:station:SCCF:56:1,2016-09-05T17:00:00Z,26.4645,-82.1044,1.59,7.94,1111122 
SCCF RECON,ioos:station:SCCF:56:1,2016-09-05T18:00:00Z,26.4645,-82.1044,1.723,9.03,1111122 
SCCF RECON,ioos:station:SCCF:56:1,2016-09-05T19:00:00Z,26.4645,-82.1044,1.82,9.1,1111122 
SCCF RECON,ioos:station:SCCF:56:1,2016-09-05T20:00:00Z,26.4645,-82.1044,1.86,9.04,1111122 
SCCF RECON,ioos:station:SCCF:56:1,2016-09-05T21:00:00Z,26.4645,-82.1044,1.85,8.42,1111122 
SCCF RECON,ioos:station:SCCF:56:1,2016-09-05T22:00:00Z,26.4645,-82.1044,1.82,8.11,1111122 
SCCF RECON,ioos:station:SCCF:56:1,2016-09-05T23:00:00Z,26.4645,-82.1044,1.76,7.37,1111122 
SCCF RECON,ioos:station:SCCF:56:1,2016-09-06T00:00:00Z,26.4645,-82.1044,1.708,7.23,1111122 
SCCF RECON,ioos:station:SCCF:56:1,2016-09-06T01:00:00Z,26.4645,-82.1044,1.602,6.49,1111122 
SCCF RECON,ioos:station:SCCF:56:1,2016-09-06T02:00:00Z,26.4645,-82.1044,1.54,5.57,1111122 
SCCF RECON,ioos:station:SCCF:56:1,2016-09-06T03:00:00Z,26.4645,-82.1044,1.46,4.89,1111122 
SCCF RECON,ioos:station:SCCF:56:1,2016-09-06T04:00:00Z,26.4645,-82.1044,1.49,4.83,1111122 
SCCF RECON,ioos:station:SCCF:56:1,2016-09-06T05:00:00Z,26.4645,-82.1044,1.62,5.79,1111122 
SCCF RECON,ioos:station:SCCF:56:1,2016-09-06T06:00:00Z,26.4645,-82.1044,1.75,6.02,1111122 
SCCF RECON,ioos:station:SCCF:56:1,2016-09-06T07:00:00Z,26.4645,-82.1044,1.868,5.83,1111122 
SCCF RECON,ioos:station:SCCF:56:1,2016-09-06T08:00:00Z,26.4645,-82.1044,1.95,5.66,1111122 
SCCF RECON,ioos:station:SCCF:56:1,2016-09-06T09:00:00Z,26.4645,-82.1044,1.95,5.71,1111122 
SCCF RECON,ioos:station:SCCF:56:1,2016-09-06T10:00:00Z,26.4645,-82.1044,1.86,5.28,1111122 
SCCF RECON,ioos:station:SCCF:56:1,2016-09-06T11:00:00Z,26.4645,-82.1044,1.75,4.53,1111122 
SCCF RECON,ioos:station:SCCF:56:1,2016-09-06T12:00:00Z,26.4645,-82.1044,1.69,4.14,1111122 
SCCF RECON,ioos:station:SCCF:56:1,2016-09-06T13:00:00Z,26.4645,-82.1044,1.62,3.55,1111122 
SCCF RECON,ioos:station:SCCF:56:1,2016-09-06T14:00:00Z,26.4645,-82.1044,1.53,3.24,1111122 
SCCF RECON,ioos:station:SCCF:56:1,2016-09-06T15:00:00Z,26.4645,-82.1044,1.486,3.44,1111122 
SCCF RECON,ioos:station:SCCF:56:1,2016-09-06T16:00:00Z,26.4645,-82.1044,1.49,3.42,1111122 
SCCF RECON,ioos:station:SCCF:56:1,2016-09-06T17:00:00Z,26.4645,-82.1044,1.57,7.45,1111122 
SCCF RECON,ioos:station:SCCF:56:1,2016-09-06T18:00:00Z,26.4645,-82.1044,1.68,8.94,1111122 
SCCF RECON,ioos:station:SCCF:56:1,2016-09-06T19:00:00Z,26.4645,-82.1044,1.78,9.12,1111122 
SCCF RECON,ioos:station:SCCF:56:1,2016-09-06T20:00:00Z,26.4645,-82.1044,1.85,8.42,1111122 
SCCF RECON,ioos:station:SCCF:56:1,2016-09-06T21:00:00Z,26.4645,-82.1044,1.86,8.2,1111122 
SCCF RECON,ioos:station:SCCF:56:1,2016-09-06T22:00:00Z,26.4645,-82.1044,1.81,7.34,1111122 
SCCF RECON,ioos:station:SCCF:56:1,2016-09-06T23:00:00Z,26.4645,-82.1044,1.75,7.35,1111122 
SCCF RECON,ioos:station:SCCF:56:1,2016-09-07T00:00:00Z,26.4645,-82.1044,1.71,6.95,1111122 
SCCF RECON,ioos:station:SCCF:56:1,2016-09-07T01:00:00Z,26.4645,-82.1044,1.68,6.59,1111122 
SCCF RECON,ioos:station:SCCF:56:1,2016-09-07T02:00:00Z,26.4645,-82.1044,1.625,5.41,1111122 
SCCF RECON,ioos:station:SCCF:56:1,2016-09-07T03:00:00Z,26.4645,-82.1044,1.57,4.56,1111122 
SCCF RECON,ioos:station:SCCF:56:1,2016-09-07T04:00:00Z,26.4645,-82.1044,1.57,4.56,1111122 
SCCF RECON,ioos:station:SCCF:56:1,2016-09-07T05:00:00Z,26.4645,-82.1044,1.631,4.74,1111122 
SCCF RECON,ioos:station:SCCF:56:1,2016-09-07T06:00:00Z,26.4645,-82.1044,1.732,5.95,1111122 
SCCF RECON,ioos:station:SCCF:56:1,2016-09-07T07:00:00Z,26.4645,-82.1044,1.81,5.81,1111122 
SCCF RECON,ioos:station:SCCF:56:1,2016-09-07T08:00:00Z,26.4645,-82.1044,1.88,5.29,1111122 
SCCF RECON,ioos:station:SCCF:56:1,2016-09-07T09:00:00Z,26.4645,-82.1044,1.896,5.47,1111122 
SCCF RECON,ioos:station:SCCF:56:1,2016-09-07T10:00:00Z,26.4645,-82.1044,1.86,5.04,1111122 
SCCF RECON,ioos:station:SCCF:56:1,2016-09-07T11:00:00Z,26.4645,-82.1044,1.81,4.99,1111122 
SCCF RECON,ioos:station:SCCF:56:1,2016-09-07T12:00:00Z,26.4645,-82.1044,1.76,4.66,1111122 
SCCF RECON,ioos:station:SCCF:56:1,2016-09-07T13:00:00Z,26.4645,-82.1044,1.697,3.53,1111122 
SCCF RECON,ioos:station:SCCF:56:1,2016-09-07T14:00:00Z,26.4645,-82.1044,1.6,3.63,1111122 
SCCF RECON,ioos:station:SCCF:56:1,2016-09-07T15:00:00Z,26.4645,-82.1044,1.52,3.67,1111122 
SCCF RECON,ioos:station:SCCF:56:1,2016-09-07T16:00:00Z,26.4645,-82.1044,1.47,3.9,1111122 
SCCF RECON,ioos:station:SCCF:56:1,2016-09-07T17:00:00Z,26.4645,-82.1044,1.47,3.65,1111122 
SCCF RECON,ioos:station:SCCF:56:1,2016-09-07T18:00:00Z,26.4645,-82.1044,1.54,7.77,1111122 
SCCF RECON,ioos:station:SCCF:56:1,2016-09-07T19:00:00Z,26.4645,-82.1044,1.63,9.63,1111122 
SCCF RECON,ioos:station:SCCF:56:1,2016-09-07T20:00:00Z,26.4645,-82.1044,1.74,7.89,1111122 
SCCF RECON,ioos:station:SCCF:56:1,2016-09-07T21:00:00Z,26.4645,-82.1044,1.76,7.4,1111122 
SCCF RECON,ioos:station:SCCF:56:1,2016-09-07T22:00:00Z,26.4645,-82.1044,1.732,6.96,1111122 
SCCF RECON,ioos:station:SCCF:56:1,2016-09-07T23:00:00Z,26.4645,-82.1044,1.71,7.2,1111122 
SCCF RECON,ioos:station:SCCF:56:1,2016-09-08T00:00:00Z,26.4645,-82.1044,1.681,6.83,1111122 
SCCF RECON,ioos:station:SCCF:56:1,2016-09-08T01:00:00Z,26.4645,-82.1044,1.66,6.77,1111122 
SCCF RECON,ioos:station:SCCF:56:1,2016-09-08T02:00:00Z,26.4645,-82.1044,1.621,5.84,1111122 
SCCF RECON,ioos:station:SCCF:56:1,2016-09-08T03:00:00Z,26.4645,-82.1044,1.591,5.94,1111122 
SCCF RECON,ioos:station:SCCF:56:1,2016-09-08T04:00:00Z,26.4645,-82.1044,1.609,5.02,1111122 
SCCF RECON,ioos:station:SCCF:56:1,2016-09-08T05:00:00Z,26.4645,-82.1044,1.65,5.8,1111122 
SCCF RECON,ioos:station:SCCF:56:1,2016-09-08T06:00:00Z,26.4645,-82.1044,1.69,5.67,1111122 
SCCF RECON,ioos:station:SCCF:56:1,2016-09-08T07:00:00Z,26.4645,-82.1044,1.73,5.67,1111122 
SCCF RECON,ioos:station:SCCF:56:1,2016-09-08T08:00:00Z,26.4645,-82.1044,1.8,4.9,1111122 
SCCF RECON,ioos:station:SCCF:56:1,2016-09-08T09:00:00Z,26.4645,-82.1044,1.84,5.09,1111122 
SCCF RECON,ioos:station:SCCF:56:1,2016-09-08T10:00:00Z,26.4645,-82.1044,1.862,5.09,1111122 
SCCF RECON,ioos:station:SCCF:56:1,2016-09-08T11:00:00Z,26.4645,-82.1044,1.82,4.59,1111122 
SCCF RECON,ioos:station:SCCF:56:1,2016-09-08T12:00:00Z,26.4645,-82.1044,1.77,4.36,1111122 
SCCF RECON,ioos:station:SCCF:56:1,2016-09-08T13:00:00Z,26.4645,-82.1044,1.7,4.28,1111122 
SCCF RECON,ioos:station:SCCF:56:1,2016-09-08T14:00:00Z,26.4645,-82.1044,1.6,3.58,1111122 
SCCF RECON,ioos:station:SCCF:56:1,2016-09-08T15:00:00Z,26.4645,-82.1044,1.51,4.0,1111122 
SCCF RECON,ioos:station:SCCF:56:1,2016-09-08T16:00:00Z,26.4645,-82.1044,1.439,4.14,1111122 
SCCF RECON,ioos:station:SCCF:56:1,2016-09-08T17:00:00Z,26.4645,-82.1044,1.39,3.68,1111122 
SCCF RECON,ioos:station:SCCF:56:1,2016-09-08T18:00:00Z,26.4645,-82.1044,1.4,4.19,1111122 
SCCF RECON,ioos:station:SCCF:56:1,2016-09-08T19:00:00Z,26.4645,-82.1044,1.48,9.79,1111122 
SCCF RECON,ioos:station:SCCF:56:1,2016-09-08T20:00:00Z,26.4645,-82.1044,1.595,9.59,1111122 
SCCF RECON,ioos:station:SCCF:56:1,2016-09-08T21:00:00Z,26.4645,-82.1044,1.635,8.9,1111122 
SCCF RECON,ioos:station:SCCF:56:1,2016-09-08T22:00:00Z,26.4645,-82.1044,1.67,8.92,1111122 
SCCF RECON,ioos:station:SCCF:56:1,2016-09-08T23:00:00Z,26.4645,-82.1044,1.66,7.74,1111122 
SCCF RECON,ioos:station:SCCF:56:1,2016-09-09T00:00:00Z,26.4645,-82.1044,1.69,7.94,1111122 
SCCF RECON,ioos:station:SCCF:56:1,2016-09-09T01:00:00Z,26.4645,-82.1044,1.71,7.87,1111122 
SCCF RECON,ioos:station:SCCF:56:1,2016-09-09T02:00:00Z,26.4645,-82.1044,1.73,7.33,1111122 
SCCF RECON,ioos:station:SCCF:56:1,2016-09-09T03:00:00Z,26.4645,-82.1044,1.72,6.92,1111122 
SCCF RECON,ioos:station:SCCF:56:1,2016-09-09T04:00:00Z,26.4645,-82.1044,1.69,6.99,1111122 
SCCF RECON,ioos:station:SCCF:56:1,2016-09-09T05:00:00Z,26.4645,-82.1044,1.67,6.56,1111122 
SCCF RECON,ioos:station:SCCF:56:1,2016-09-09T06:00:00Z,26.4645,-82.1044,1.66,6.62,1111122 
SCCF RECON,ioos:station:SCCF:56:1,2016-09-09T07:00:00Z,26.4645,-82.1044,1.69,6.06,1111122 
SCCF RECON,ioos:station:SCCF:56:1,2016-09-09T08:00:00Z,26.4645,-82.1044,1.76,4.46,1111122 
SCCF RECON,ioos:station:SCCF:56:1,2016-09-09T09:00:00Z,26.4645,-82.1044,1.83,5.28,1111122 
SCCF RECON,ioos:station:SCCF:56:1,2016-09-09T10:00:00Z,26.4645,-82.1044,1.86,5.19,1111122 
SCCF RECON,ioos:station:SCCF:56:1,2016-09-09T11:00:00Z,26.4645,-82.1044,1.85,4.61,1111122 
SCCF RECON,ioos:station:SCCF:56:1,2016-09-09T12:00:00Z,26.4645,-82.1044,1.81,4.67,1111122 
SCCF RECON,ioos:station:SCCF:56:1,2016-09-09T13:00:00Z,26.4645,-82.1044,1.76,5.01,1111122 
SCCF RECON,ioos:station:SCCF:56:1,2016-09-09T14:00:00Z,26.4645,-82.1044,1.71,4.78,1111122 
SCCF RECON,ioos:station:SCCF:56:1,2016-09-09T15:00:00Z,26.4645,-82.1044,1.633,4.85,1111122 
SCCF RECON,ioos:station:SCCF:56:1,2016-09-09T16:00:00Z,26.4645,-82.1044,1.53,4.72,1111122 
SCCF RECON,ioos:station:SCCF:56:1,2016-09-09T17:00:00Z,26.4645,-82.1044,1.44,4.84,1111122 
SCCF RECON,ioos:station:SCCF:56:1,2016-09-09T18:00:00Z,26.4645,-82.1044,1.4,4.9,1111122 
SCCF RECON,ioos:station:SCCF:56:1,2016-09-09T19:00:00Z,26.4645,-82.1044,1.389,4.67,1111122 
SCCF RECON,ioos:station:SCCF:56:1,2016-09-09T20:00:00Z,26.4645,-82.1044,1.45,7.1,1111122 
SCCF RECON,ioos:station:SCCF:56:1,2016-09-09T21:00:00Z,26.4645,-82.1044,1.55,10.57,1111122 
SCCF RECON,ioos:station:SCCF:56:1,2016-09-09T22:00:00Z,26.4645,-82.1044,1.64,9.78,1111122 
SCCF RECON,ioos:station:SCCF:56:1,2016-09-09T23:00:00Z,26.4645,-82.1044,1.68,8.65,1111122 
SCCF RECON,ioos:station:SCCF:56:1,2016-09-10T00:00:00Z,26.4645,-82.1044,1.71,7.81,1111122 
SCCF RECON,ioos:station:SCCF:56:1,2016-09-10T01:00:00Z,26.4645,-82.1044,1.731,7.64,1111122 
SCCF RECON,ioos:station:SCCF:56:1,2016-09-10T02:00:00Z,26.4645,-82.1044,1.73,6.46,1111122 
SCCF RECON,ioos:station:SCCF:56:1,2016-09-10T03:00:00Z,26.4645,-82.1044,1.72,6.67,1111122 
SCCF RECON,ioos:station:SCCF:56:1,2016-09-10T04:00:00Z,26.4645,-82.1044,1.696,6.62,1111122 
SCCF RECON,ioos:station:SCCF:56:1,2016-09-10T05:00:00Z,26.4645,-82.1044,1.66,6.16,1111122 
SCCF RECON,ioos:station:SCCF:56:1,2016-09-10T06:00:00Z,26.4645,-82.1044,1.63,5.58,1111122 
SCCF RECON,ioos:station:SCCF:56:1,2016-09-10T07:00:00Z,26.4645,-82.1044,1.626,5.81,1111122 
SCCF RECON,ioos:station:SCCF:56:1,2016-09-10T08:00:00Z,26.4645,-82.1044,1.65,5.2,1111122 
SCCF RECON,ioos:station:SCCF:56:1,2016-09-10T09:00:00Z,26.4645,-82.1044,1.72,5.1,1111122 
SCCF RECON,ioos:station:SCCF:56:1,2016-09-10T10:00:00Z,26.4645,-82.1044,1.81,5.19,1111122 
SCCF RECON,ioos:station:SCCF:56:1,2016-09-10T11:00:00Z,26.4645,-82.1044,1.86,4.85,1111122 
SCCF RECON,ioos:station:SCCF:56:1,2016-09-10T12:00:00Z,26.4645,-82.1044,1.87,5.3,1111122 
SCCF RECON,ioos:station:SCCF:56:1,2016-09-10T13:00:00Z,26.4645,-82.1044,1.85,4.96,1111122 
SCCF RECON,ioos:station:SCCF:56:1,2016-09-10T14:00:00Z,26.4645,-82.1044,1.85,4.74,1111122 
SCCF RECON,ioos:station:SCCF:56:1,2016-09-10T15:00:00Z,26.4645,-82.1044,1.731,3.86,1111122 
SCCF RECON,ioos:station:SCCF:56:1,2016-09-10T16:00:00Z,26.4645,-82.1044,1.65,4.64,1111122 
SCCF RECON,ioos:station:SCCF:56:1,2016-09-10T17:00:00Z,26.4645,-82.1044,1.58,4.76,1111122 
SCCF RECON,ioos:station:SCCF:56:1,2016-09-10T18:00:00Z,26.4645,-82.1044,1.48,4.44,1111122 
SCCF RECON,ioos:station:SCCF:56:1,2016-09-10T19:00:00Z,26.4645,-82.1044,1.4,5.2,1111122 
SCCF RECON,ioos:station:SCCF:56:1,2016-09-10T20:00:00Z,26.4645,-82.1044,1.37,5.63,1111122 
SCCF RECON,ioos:station:SCCF:56:1,2016-09-10T21:00:00Z,26.4645,-82.1044,1.43,5.41,1111122 
SCCF RECON,ioos:station:SCCF:56:1,2016-09-10T22:00:00Z,26.4645,-82.1044,1.56,8.38,1111122 
SCCF RECON,ioos:station:SCCF:56:1,2016-09-10T23:00:00Z,26.4645,-82.1044,1.66,8.94,1111122 
SCCF RECON,ioos:station:SCCF:56:1,2016-09-11T00:00:00Z,26.4645,-82.1044,1.714,7.04,1111122 
SCCF RECON,ioos:station:SCCF:56:1,2016-09-11T01:00:00Z,26.4645,-82.1044,1.74,7.54,1111122 
SCCF RECON,ioos:station:SCCF:56:1,2016-09-11T02:00:00Z,26.4645,-82.1044,1.79,6.49,1111122 
SCCF RECON,ioos:station:SCCF:56:1,2016-09-11T03:00:00Z,26.4645,-82.1044,1.81,6.01,1111122 
SCCF RECON,ioos:station:SCCF:56:1,2016-09-11T04:00:00Z,26.4645,-82.1044,1.809,5.45,1111122 
SCCF RECON,ioos:station:SCCF:56:1,2016-09-11T05:00:00Z,26.4645,-82.1044,1.752,5.79,1111122 
SCCF RECON,ioos:station:SCCF:56:1,2016-09-11T06:00:00Z,26.4645,-82.1044,1.69,5.83,1111122 
SCCF RECON,ioos:station:SCCF:56:1,2016-09-11T07:00:00Z,26.4645,-82.1044,1.67,5.88,1111122 
SCCF RECON,ioos:station:SCCF:56:1,2016-09-11T08:00:00Z,26.4645,-82.1044,1.713,4.72,1111122 
SCCF RECON,ioos:station:SCCF:56:1,2016-09-11T09:00:00Z,26.4645,-82.1044,1.73,4.76,1111122 
SCCF RECON,ioos:station:SCCF:56:1,2016-09-11T10:00:00Z,26.4645,-82.1044,1.8,3.88,1111122 
SCCF RECON,ioos:station:SCCF:56:1,2016-09-11T11:00:00Z,26.4645,-82.1044,1.88,4.66,1111122 
SCCF RECON,ioos:station:SCCF:56:1,2016-09-11T12:00:00Z,26.4645,-82.1044,1.92,5.43,1111122 
SCCF RECON,ioos:station:SCCF:56:1,2016-09-11T13:00:00Z,26.4645,-82.1044,1.93,4.88,1111122 
SCCF RECON,ioos:station:SCCF:56:1,2016-09-11T14:00:00Z,26.4645,-82.1044,1.9,5.08,1111122 
SCCF RECON,ioos:station:SCCF:56:1,2016-09-11T15:00:00Z,26.4645,-82.1044,1.839,3.98,1111122 
SCCF RECON,ioos:station:SCCF:56:1,2016-09-11T16:00:00Z,26.4645,-82.1044,1.722,4.43,1111122 
SCCF RECON,ioos:station:SCCF:56:1,2016-09-11T17:00:00Z,26.4645,-82.1044,1.61,4.88,1111122 
SCCF RECON,ioos:station:SCCF:56:1,2016-09-11T18:00:00Z,26.4645,-82.1044,1.51,4.4,1111122 
SCCF RECON,ioos:station:SCCF:56:1,2016-09-11T19:00:00Z,26.4645,-82.1044,1.429,4.69,1111122 
SCCF RECON,ioos:station:SCCF:56:1,2016-09-11T20:00:00Z,26.4645,-82.1044,1.34,5.44,1111122 
SCCF RECON,ioos:station:SCCF:56:1,2016-09-11T21:00:00Z,26.4645,-82.1044,1.31,5.63,1111122 